SES-2

Last updated on Thu Jul 03 2025 00:02:45 GMT+0000 (Coordinated Universal Time)

1 37809U 11049A 25183.54933233 -.00000188 00000+0 00000+0 0 9999 2 37809 0.0189 325.4687 0002448 136.9895 289.1110 1.00273005 50455
UTC large
Height (km)
Speed (km/s)
/
Latitude / Longitude
Inclination (degrees)
Orbital Period (minutes)
Azimuth
Elevation
Range (km)
Doppler Factor

Next 0 passes for location: London (51.5072 / 0.1276)

Sorry there are no passes over London.